Location: Stanford
(52.2833°N, 2.4333°W)
Time: 20:08:45
(UTC+00:00)

Cosmos 1553 Rocket - Pass Details

Date: 22 January 2021
Orbit: 941 x 1008 km, 82.9° (Epoch: 27 February)

Event Time Altitude Azimuth Distance (km) Brightness Sun altitude
Rises 18:31:11 0° 352° (N) 3,753 7.0 -16.8°
Reaches altitude 10° 18:33:55 10° 360° (N) 2,799 6.3 -17.2°
Maximum altitude 18:39:58 41° 69° (ENE) 1,431 4.4 -18.1°
Drops below altitude 10° 18:45:55 10° 138° (SE) 2,762 6.0 -19.0°
Sets 18:48:36 0° 146° (SE) 3,699 6.8 -19.4°
